Temperature
30 31 31 32 32 32 32 31 31 31 31 31 30 30 30 29 28 28 27 26 25 25 24 23 22 21 21 20 20 20 20 20 20 19 19 19 19 19 18 18 18 18 18 18
31 31 32 32 32 31 31 31 31 31 31 31 30 30 30 30 29 28 27 27 26 25 24 23 22 21 21 21 20 20 20 20 20 20 19 19 19 19 18 18 18 18 18 18
31 31 31 31 31 31 31 31 31 31 30 31 30 30 30 30 29 28 27 27 26 25 25 23 22 22 21 21 21 20 20 20 20 20 19 19 19 19 19 18 18 18 18 18
31 32 31 31 31 31 31 31 31 31 30 31 30 30 30 30 30 29 28 27 27 25 25 24 22 22 21 21 21 21 20 20 20 20 19 19 19 19 19 18 18 18 18 18
31 31 31 31 31 31 31 31 31 31 31 31 31 30 31 31 30 30 29 28 27 26 25 24 23 22 21 21 21 21 20 20 20 20 19 19 19 19 18 18 18 18 18 18
31 31 31 31 31 31 31 31 30 31 31 30 31 30 30 31 30 30 29 28 26 26 25 24 23 22 21 21 21 20 20 20 20 20 19 19 19 19 18 18 18 18 18 18
30 31 31 31 31 31 31 30 30 29 30 30 31 30 30 31 30 30 29 28 26 25 25 24 23 22 21 21 21 20 20 20 20 20 19 19 19 19 18 18 18 18 18 18
30 30 31 31 31 31 31 31 30 29 30 31 30 30 31 30 29 29 28 28 26 26 25 24 23 22 21 21 21 20 20 20 20 20 19 19 19 18 18 18 18 18 18 18
31 30 31 31 31 31 31 31 32 31 31 30 31 30 30 30 29 29 28 28 27 26 25 24 23 22 22 21 21 21 20 20 20 19 19 19 19 18 18 18 18 18 18 18
31 30 31 30 31 30 31 31 31 31 29 29 30 30 30 29 29 29 29 28 27 26 25 24 24 23 22 22 21 21 20 20 20 19 19 19 19 19 18 18 18 18 18 18
31 30 30 30 30 31 30 30 30 31 31 30 29 30 31 30 29 29 28 27 26 26 25 24 24 23 22 21 21 20 20 20 19 19 19 19 18 18 18 18 18 18 18 18
30 30 30 30 30 30 31 31 30 30 29 30 30 30 30 30 29 28 27 26 25 25 25 24 23 22 22 21 21 20 20 20 19 19 19 18 18 18 18 18 18 18 18 17
29 29 28 29 29 29 30 30 30 31 30 30 30 30 30 29 28 27 26 25 24 24 24 23 22 22 21 21 21 20 20 20 19 19 19 18 18 18 18 18 17 17 17 17
28 29 29 29 30 30 29 30 30 30 30 30 30 30 29 29 28 27 26 25 24 23 23 23 22 21 21 20 20 20 20 20 19 19 18 18 18 18 17 17 17 17 17 17
28 29 29 29 30 30 29 29 29 29 30 30 30 30 29 29 28 26 25 24 24 23 22 22 21 20 20 20 19 19 19 19 19 19 19 18 18 18 17 17 17 17 17 16
27 28 28 28 29 29 29 29 29 29 29 29 29 29 29 28 26 25 25 24 24 23 22 21 21 20 20 19 19 19 19 19 18 18 18 18 18 18 17 17 17 17 17 17
27 27 27 28 29 28 28 29 29 29 29 29 29 29 28 27 26 25 24 24 23 22 21 21 21 20 19 19 19 19 19 18 18 18 18 18 18 17 17 17 17 16 16 16
26 26 27 28 27 26 28 28 28 28 28 28 28 27 27 26 24 24 23 23 22 21 21 20 20 20 19 19 19 19 18 18 18 18 18 17 17 17 17 16 16 16 16 16
26 26 26 27 27 27 28 27 27 27 27 27 27 26 26 24 24 23 22 22 21 21 20 20 20 20 19 19 19 18 18 18 18 18 17 17 17 17 17 16 16 16 16 16
25 25 26 26 26 26 27 27 26 26 26 26 26 25 25 24 25 25 21 21 20 20 19 19 19 19 19 18 18 18 18 18 17 17 17 17 17 17 16 16 16 16 15 15
24 24 25 26 26 27 26 25 25 25 25 25 24 24 24 24 24 22 21 20 19 19 18 18 18 18 18 18 18 18 17 17 17 17 17 17 17 16 16 16 16 15 15 15
25 25 25 25 25 25 25 25 25 24 23 23 23 23 23 22 21 20 20 19 19 18 18 18 18 18 17 17 17 17 17 17 17 16 16 16 16 16 16 15 15 15 15 14
24 24 25 25 25 23 22 23 22 22 22 22 22 22 21 21 20 19 19 18 18 18 18 17 17 17 17 17 17 17 17 16 16 16 16 16 16 15 15 15 15 14 14 14
23 22 23 23 23 22 22 22 21 21 21 21 21 20 20 20 19 19 19 18 18 17 17 17 17 17 16 16 16 16 16 16 16 16 15 15 15 15 15 14 14 14 14 14
22 22 22 22 22 22 21 21 20 20 20 20 19 20 19 19 19 18 18 18 17 17 17 16 16 16 16 16 16 16 16 16 16 15 15 15 15 15 15 14 14 14 14 14
22 22 22 22 22 22 21 20 20 20 19 19 19 19 19 18 18 18 17 17 17 16 16 16 16 16 16 16 16 16 16 15 15 15 15 15 15 14 14 14 14 14 14 14
Wind_Speed
7 9 8 6 6 4 4 4 2 1 0 2 2 2 2 5 7 7 8 8 8 7 7 7 7 7 7 7 7 6 5 5 4 4 4 3 3 2 2 2 2 1 1 1
8 9 6 4 5 6 6 5 3 1 1 2 2 3 2 5 7 7 7 8 8 8 8 8 8 7 8 8 7 7 6 6 5 4 3 2 2 2 2 1 2 1 1 1
10 4 4 6 7 7 7 6 4 3 3 5 5 4 5 5 6 6 7 7 7 8 8 9 8 8 8 8 8 6 6 6 5 5 4 3 3 2 2 2 2 1 1 1
8 5 6 8 8 8 7 5 5 5 6 4 5 4 3 5 6 7 7 7 7 8 8 9 9 9 8 8 7 7 6 6 5 5 4 4 3 2 1 1 1 1 1 1
7 7 8 9 7 8 5 3 5 7 7 6 6 6 2 5 5 6 7 7 7 7 8 9 9 9 8 8 7 7 6 6 5 5 5 4 3 2 2 1 1 1 1 1
7 5 6 6 5 6 5 5 6 8 8 8 6 7 3 2 3 4 6 7 7 7 8 8 9 8 8 8 7 7 7 6 6 6 5 4 4 3 2 1 1 2 1 1
9 9 7 6 7 8 9 8 6 7 8 6 3 6 3 0 1 2 4 6 7 8 8 9 9 9 9 8 8 8 7 6 6 6 5 5 4 4 3 3 2 2 1 1
10 9 9 8 9 8 11 11 8 7 7 4 5 5 1 1 1 2 3 5 7 8 9 9 9 9 9 9 8 8 8 7 6 6 5 4 4 4 3 2 2 2 1 1
8 7 6 6 6 8 8 10 9 9 8 7 5 4 3 3 3 3 4 6 7 8 8 9 9 9 8 9 8 8 8 7 6 6 5 4 4 3 2 2 3 2 2 1
7 7 6 6 6 5 7 7 7 9 8 8 6 6 3 3 3 4 5 5 6 7 8 8 8 9 8 8 8 8 8 7 6 6 5 4 4 3 3 3 2 2 2 1
9 8 7 8 8 8 8 8 8 8 8 8 7 3 2 3 2 3 4 5 5 6 7 8 8 8 8 8 8 8 8 8 6 5 4 4 3 3 3 3 2 2 2 2
8 8 8 8 5 4 7 9 10 9 8 8 9 3 4 3 2 3 4 4 4 5 6 7 8 8 8 8 8 8 8 8 7 6 5 4 3 3 3 3 3 3 3 3
5 7 8 8 9 8 8 8 10 10 9 9 10 4 5 4 4 4 4 5 5 5 6 7 7 7 7 7 7 7 7 7 7 6 6 5 4 4 3 3 3 3 3 3
5 8 10 10 5 5 8 9 9 11 10 9 10 6 5 4 4 4 4 5 5 6 5 6 6 6 6 6 6 6 6 6 6 6 6 6 5 5 4 4 4 3 3 3
6 10 9 8 6 6 8 8 9 11 11 10 7 7 6 5 4 4 4 5 6 5 5 5 5 5 6 6 6 5 5 5 5 5 5 5 5 4 4 4 4 4 4 4
4 8 8 9 8 8 10 10 10 11 11 10 9 7 3 3 5 5 5 5 5 5 4 4 4 5 5 5 5 4 4 4 5 5 4 4 4 4 4 5 4 4 4 4
6 6 8 10 8 9 12 10 11 10 9 10 10 6 4 5 5 5 5 5 4 4 4 4 3 3 4 4 4 4 4 4 5 4 4 4 4 5 5 5 4 4 4 4
8 8 7 8 7 12 4 0 4 7 7 7 5 4 4 4 4 4 4 4 4 4 3 3 3 2 3 4 4 3 3 4 4 4 4 4 5 5 5 5 5 5 5 4
8 8 8 8 11 10 6 4 4 5 5 4 5 4 4 5 6 6 4 3 3 3 3 2 2 2 2 2 4 5 4 4 4 4 4 4 5 5 4 5 5 5 5 4
7 9 9 9 10 10 2 3 3 5 6 3 3 4 5 6 6 4 4 3 3 3 3 2 2 2 2 1 2 4 4 4 4 4 4 4 4 5 5 5 5 4 4 4
9 9 12 13 11 7 1 2 5 7 1 3 3 3 4 4 1 3 3 3 3 3 2 2 1 1 1 1 2 3 4 4 4 4 4 4 4 5 5 4 4 4 4 4
8 8 10 10 12 7 3 4 3 2 3 3 2 2 2 3 4 3 3 3 2 2 1 1 1 0 0 1 2 3 3 3 3 3 4 4 5 5 4 4 4 4 4 4
6 5 5 5 3 2 1 1 1 1 2 2 1 2 3 2 2 3 2 2 1 0 0 0 1 1 1 1 2 3 2 2 3 4 4 5 5 5 5 5 5 5 5 5
4 2 4 4 3 1 1 1 1 1 1 1 1 2 3 2 1 1 1 1 0 0 1 1 1 1 1 2 2 2 2 3 4 4 5 5 5 5 4 4 5 5 5 5
4 3 5 6 4 3 2 1 1 1 1 2 2 2 2 2 2 1 1 1 1 1 2 2 2 2 2 2 2 2 2 3 4 4 4 5 5 4 4 4 3 4 4 4
6 6 7 6 4 3 2 1 1 1 2 2 2 2 2 3 3 3 2 2 2 3 3 3 3 3 2 2 2 2 2 2 3 4 4 4 4 4 4 4 3 1 2 3
Wind_Direction
202 221 219 216 232 274 274 271 272 271 171 256 262 273 208 186 199 193 190 188 185 185 174 170 174 174 171 170 171 173 174 173 177 170 173 173 164 159 145 141 123 130 142 154
207 222 226 231 226 237 245 251 251 204 160 259 274 265 223 198 204 204 197 194 192 185 175 173 178 177 176 174 175 176 179 179 183 171 173 171 169 166 152 144 125 150 171 213
223 217 201 217 217 231 238 254 267 262 234 227 258 239 201 192 197 202 208 206 200 192 185 179 181 180 178 179 181 181 181 181 182 179 177 170 169 180 168 167 172 175 185 206
231 220 212 221 226 240 241 245 255 244 245 240 246 270 187 193 198 206 207 206 204 193 188 181 179 180 182 183 179 178 179 180 178 184 188 193 190 192 182 184 173 186 201 218
215 211 218 229 235 243 252 234 236 243 251 257 234 262 199 182 207 210 205 202 200 188 182 178 177 177 179 179 176 173 174 179 181 185 184 199 204 197 187 178 171 218 195 217
231 213 232 239 230 220 197 203 217 232 246 250 242 255 246 197 223 213 197 193 191 181 176 172 170 167 171 172 175 174 174 180 183 186 189 198 200 201 200 207 210 226 210 212
217 214 209 213 209 198 214 229 233 233 232 242 199 248 255 24 197 223 201 184 180 175 173 170 170 170 173 175 178 178 176 179 183 187 194 199 203 204 208 225 215 247 242 234
218 213 200 207 227 226 223 240 251 261 260 245 195 237 220 110 191 209 199 182 176 178 175 173 173 174 176 177 178 179 179 179 180 185 191 197 202 213 208 216 241 226 252 250
225 214 172 199 224 237 225 238 259 267 268 266 242 228 218 194 201 193 183 174 175 177 176 174 173 176 177 177 178 180 178 177 179 181 182 187 193 209 209 205 219 214 219 232
237 228 195 182 200 219 252 241 240 251 257 262 248 239 237 198 203 189 178 170 169 171 175 172 171 174 176 175 175 176 176 176 175 176 185 178 183 196 207 217 212 227 227 239
236 231 208 201 222 222 208 222 239 252 262 268 266 256 118 179 178 171 159 155 166 168 166 166 165 166 166 165 165 169 171 171 171 172 174 174 176 187 198 198 209 215 223 220
225 237 229 220 214 250 240 237 234 246 249 256 270 260 116 142 143 139 139 137 142 152 156 158 158 158 162 164 165 168 170 171 171 168 171 172 170 181 200 201 210 215 222 227
207 229 224 217 209 210 229 233 241 253 252 251 256 233 134 142 143 129 128 135 138 142 145 151 152 157 161 162 164 164 169 168 168 166 171 172 178 187 201 206 208 215 223 232
232 237 244 250 250 209 220 227 234 246 250 249 250 248 183 175 169 145 135 139 141 139 144 150 151 153 155 157 161 167 173 169 170 172 177 182 193 200 203 207 209 216 221 227
235 239 244 258 263 250 245 240 235 242 256 263 259 250 224 203 182 159 153 151 146 144 146 149 152 153 157 159 162 169 177 174 177 182 190 197 202 201 206 211 215 218 223 228
239 247 239 242 239 242 247 246 241 243 250 253 254 250 223 175 165 167 165 162 158 151 149 148 154 158 163 163 164 167 179 180 184 192 199 201 205 206 212 219 218 217 224 232
223 233 241 244 236 244 244 243 241 240 245 249 251 244 195 192 185 179 170 167 162 154 150 153 158 167 173 171 169 176 184 185 190 197 205 209 211 213 219 224 219 222 227 231
226 236 241 247 234 243 251 212 246 243 246 251 253 231 204 194 178 166 161 158 146 141 145 149 158 172 180 176 177 181 191 190 198 205 213 217 218 222 224 224 228 229 233 235
224 223 238 241 241 246 227 202 228 235 241 240 227 211 189 161 158 159 143 138 138 136 136 145 166 174 175 183 178 179 193 195 203 209 217 220 221 223 222 225 230 232 233 236
202 215 233 237 250 255 230 147 209 232 229 196 193 192 181 180 204 159 133 137 127 122 129 142 162 156 152 176 189 193 200 205 218 224 227 224 224 224 225 229 233 235 234 235
200 212 228 235 243 252 88 151 201 229 212 130 172 180 189 202 343 104 134 135 130 116 114 128 145 141 132 179 206 217 217 223 229 230 230 226 226 228 227 228 228 224 229 234
223 221 225 234 239 239 102 176 221 13 83 117 146 156 147 117 99 112 128 138 144 134 127 142 152 184 145 219 224 232 238 246 237 232 232 231 229 231 225 222 221 221 226 228
234 254 247 246 253 59 131 208 32 74 123 109 123 128 138 141 140 129 134 135 125 108 42 233 211 221 244 258 256 254 263 256 241 232 230 232 229 226 221 220 220 219 223 234
223 268 250 240 224 195 198 219 210 190 162 113 112 138 144 160 182 173 165 166 140 319 288 273 246 253 270 276 271 271 269 252 236 233 233 232 230 228 222 226 222 223 225 231
257 221 232 240 236 224 212 208 194 187 177 161 145 152 155 176 214 244 241 245 268 280 289 279 267 264 275 292 289 283 276 255 240 239 238 238 233 228 227 226 233 230 227 228
238 237 240 247 232 243 224 196 210 212 203 193 190 197 200 207 226 243 256 267 272 274 272 269 267 268 272 282 283 281 269 255 244 239 241 244 239 229 229 223 217 75 223 177
Height
1501 1498 1495 1494 1493 1494 1495 1497 1499 1497 1496 1498 1499 1500 1500 1504 1505 1507 1510 1512 1514 1517 1519 1521 1522 1524 1525 1525 1526 1527 1528 1529 1529 1530 1531 1532 1534 1535 1535 1536 1536 1536 1536 1537
1498 1496 1492 1492 1493 1495 1496 1498 1498 1496 1496 1498 1498 1499 1498 1500 1503 1505 1507 1510 1512 1515 1517 1519 1521 1522 1523 1524 1525 1526 1527 1528 1529 1530 1531 1532 1533 1534 1535 1535 1535 1536 1536 1536
1494 1492 1492 1494 1495 1496 1495 1496 1496 1499 1497 1496 1498 1499 1496 1497 1501 1503 1505 1507 1509 1512 1514 1517 1519 1520 1522 1523 1524 1526 1526 1527 1528 1530 1531 1532 1533 1534 1534 1535 1535 1535 1535 1536
1491 1490 1493 1493 1493 1493 1497 1491 1494 1497 1500 1498 1499 1505 1495 1493 1496 1499 1502 1504 1507 1510 1512 1515 1517 1519 1520 1522 1523 1524 1526 1527 1528 1529 1531 1532 1532 1533 1534 1534 1534 1534 1534 1534
1489 1489 1492 1493 1491 1491 1492 1491 1493 1494 1496 1498 1495 1500 1493 1489 1494 1494 1498 1501 1504 1507 1510 1513 1515 1517 1519 1520 1522 1523 1524 1526 1527 1528 1529 1530 1532 1532 1533 1533 1533 1533 1533 1533
1485 1488 1489 1489 1489 1490 1491 1493 1494 1493 1492 1506 1496 1500 1498 1487 1490 1490 1494 1498 1502 1505 1508 1511 1513 1515 1517 1519 1521 1522 1523 1524 1526 1527 1528 1529 1530 1531 1531 1532 1532 1532 1532 1532
1489 1486 1487 1488 1490 1490 1491 1496 1505 1508 1506 1502 1490 1496 1493 1485 1487 1489 1492 1496 1499 1503 1506 1508 1511 1513 1515 1517 1519 1521 1522 1523 1524 1526 1527 1528 1529 1529 1530 1530 1531 1531 1532 1532
1491 1491 1483 1484 1486 1487 1487 1488 1504 1514 1508 1495 1493 1495 1487 1484 1487 1490 1492 1494 1498 1501 1503 1506 1509 1511 1513 1515 1517 1519 1520 1521 1523 1524 1525 1526 1527 1528 1529 1529 1530 1530 1530 1530
1483 1487 1480 1482 1483 1483 1486 1485 1479 1488 1491 1497 1491 1487 1484 1484 1486 1487 1490 1493 1496 1499 1502 1505 1507 1510 1512 1513 1515 1517 1518 1520 1521 1523 1524 1525 1525 1526 1527 1528 1528 1529 1528 1529
1477 1487 1480 1482 1483 1484 1482 1479 1484 1489 1505 1506 1496 1491 1487 1484 1484 1486 1488 1491 1494 1498 1500 1503 1505 1508 1510 1512 1514 1516 1517 1518 1520 1521 1522 1524 1524 1525 1525 1526 1526 1527 1527 1526
1475 1483 1483 1481 1484 1481 1485 1485 1484 1483 1485 1498 1502 1492 1475 1480 1482 1485 1488 1491 1494 1496 1499 1501 1504 1506 1509 1511 1512 1514 1515 1517 1518 1520 1521 1522 1522 1523 1524 1524 1524 1525 1525 1525
1477 1477 1483 1480 1477 1478 1477 1478 1481 1490 1492 1488 1490 1489 1475 1479 1481 1485 1488 1492 1494 1496 1498 1500 1503 1505 1507 1509 1511 1512 1514 1515 1517 1518 1519 1519 1520 1521 1522 1522 1523 1523 1523 1523
1478 1480 1490 1488 1485 1481 1480 1478 1477 1476 1480 1484 1488 1487 1476 1480 1483 1486 1489 1492 1494 1496 1498 1500 1502 1504 1506 1508 1510 1511 1513 1514 1515 1516 1517 1517 1518 1519 1520 1520 1521 1521 1521 1521
1480 1477 1482 1486 1477 1473 1478 1477 1476 1477 1478 1481 1480 1478 1476 1479 1483 1486 1490 1492 1494 1496 1498 1500 1502 1504 1505 1507 1508 1510 1512 1513 1514 1515 1515 1516 1516 1517 1518 1518 1518 1519 1519 1519
1478 1478 1475 1473 1471 1472 1474 1475 1476 1477 1475 1477 1474 1475 1474 1478 1482 1487 1490 1492 1494 1496 1498 1500 1502 1503 1504 1506 1507 1509 1510 1511 1512 1512 1513 1514 1515 1515 1515 1516 1516 1516 1516 1517
1478 1478 1477 1477 1472 1473 1475 1473 1473 1474 1473 1473 1474 1475 1474 1479 1484 1487 1489 1491 1493 1495 1498 1499 1501 1502 1503 1504 1506 1507 1508 1509 1510 1510 1511 1512 1512 1513 1513 1513 1514 1514 1514 1514
1477 1479 1481 1478 1472 1475 1479 1471 1471 1472 1471 1472 1473 1473 1476 1480 1483 1486 1489 1491 1493 1495 1497 1498 1500 1501 1502 1503 1504 1505 1506 1507 1508 1508 1509 1509 1509 1510 1510 1511 1511 1511 1511 1511
1479 1480 1478 1476 1481 1492 1472 1467 1468 1470 1470 1470 1472 1474 1477 1481 1485 1487 1489 1491 1493 1494 1496 1497 1498 1499 1501 1501 1502 1503 1504 1505 1505 1506 1506 1506 1507 1507 1507 1507 1507 1507 1508 1508
1475 1478 1478 1477 1480 1475 1469 1469 1471 1472 1473 1472 1473 1476 1479 1482 1484 1487 1490 1491 1493 1494 1495 1496 1497 1498 1498 1499 1500 1501 1502 1502 1503 1503 1503 1503 1503 1503 1504 1504 1504 1504 1504 1504
1475 1476 1477 1478 1483 1481 1469 1468 1471 1473 1476 1473 1475 1477 1479 1481 1480 1483 1489 1491 1492 1493 1494 1494 1495 1496 1496 1497 1498 1499 1499 1499 1499 1499 1499 1500 1500 1500 1500 1500 1501 1501 1501 1501
1475 1477 1475 1475 1478 1469 1468 1471 1473 1479 1476 1475 1476 1478 1480 1481 1482 1486 1488 1490 1491 1492 1492 1493 1493 1494 1494 1494 1495 1495 1496 1496 1496 1496 1497 1496 1497 1497 1497 1497 1497 1497 1497 1498
1471 1471 1474 1472 1476 1475 1471 1472 1473 1475 1476 1477 1478 1480 1481 1483 1485 1486 1488 1489 1490 1491 1491 1491 1491 1492 1492 1492 1492 1492 1493 1493 1493 1493 1493 1493 1493 1494 1494 1494 1494 1494 1494 1494
1469 1468 1466 1469 1471 1474 1474 1474 1476 1477 1478 1479 1480 1481 1483 1484 1486 1486 1487 1488 1489 1490 1490 1490 1490 1490 1490 1490 1490 1490 1490 1490 1490 1490 1490 1490 1490 1490 1490 1490 1490 1491 1491 1492
1470 1473 1471 1471 1470 1473 1475 1476 1477 1478 1479 1480 1480 1481 1483 1485 1486 1487 1487 1487 1488 1488 1488 1488 1489 1488 1488 1488 1488 1487 1487 1487 1487 1486 1486 1487 1487 1487 1487 1487 1487 1488 1488 1488
1471 1472 1471 1472 1473 1474 1475 1476 1477 1478 1479 1480 1480 1481 1482 1485 1486 1486 1486 1486 1486 1486 1486 1486 1486 1485 1485 1485 1485 1484 1484 1483 1483 1483 1483 1484 1484 1484 1483 1484 1484 1484 1484 1485
1471 1471 1470 1469 1472 1473 1474 1476 1477 1478 1478 1479 1480 1481 1482 1482 1483 1484 1484 1484 1484 1484 1484 1484 1484 1483 1482 1482 1482 1481 1481 1480 1480 1480 1480 1481 1481 1481 1481 1481 1481 1480 1481 1481